Hovedside
METAR-TAF:

METAR-TAF

Lufthavner :

Leknes, Norge

Leknes lufthavn

breddegrad: 68-09N, lengdegrad: 013-37E, høyde over havet: 2 m

Gjeldene værobservasjon

Denne rapporten ble laget for 2 timer og 4 minutter siden, klokken 19:50 UTC
Vind 2 kt fra skiftende retning
Temperatur 15°C
Luftfuktighet 82%
Trykk 1007 hPa
Sikt 10 km eller mer
Få skyer i en høyde av 3500 ft
Brutte skyer i en høyde av 6000 ft

METAR: ENLK 181950Z VRB02KT 9999 FEW035 BKN060 15/12 Q1007

Tid: 23:54 (21:54 UTC)


TAF: fraværende

Værobservasjoner og værvarsel for over 4000 flyplasser (METAR- og TAF-rapporter).

Tilgjengelige stasjoner er representert av de røde og gule prikkene på kartet.

Hold musepekeren over prikken for å se navnet på stasjonen.

Klikk så for å se værobservasjoner og -varsler.

For å forandre kartet kan du klikke på den grønne knappen med svart kryss for å zoome inn, på den grønne knappen med strek for å zoome ut, eller på de grønne pilene for å se tilstøtende kart.


METAR-TAF: